User: anonymous   Login
Location: Muenchen
(48.1800°N, 11.5800°E)
Time: 12:05:23
(UTC+02:00)
Language:

ISS - Orbit

View from above orbital plane
View from above orbital plane
View from above satellite
View from above satellite

Ground track
Ground track

The orbit data is extracted from the following two-line orbital elements,

1 25544U 98067A   17232.52951416  .00016717  00000-0  10270-3 0  9049
2 25544  51.6393  77.5743 0004939 163.1291 197.0027 15.54150129 31755
Epoch (UTC): 20 August 2017 12:42:30
Eccentricity: 0.0004939
inclination: 51.6393°
perigee height: 401 km
apogee height: 408 km
right ascension of ascending node: 77.5743°
argument of perigee: 163.1291°
revolutions per day: 15.54150129
mean anomaly at epoch: 197.0027°
orbit number at epoch: 3175

The dashed part of the orbit path shows where the satellite is in the earth's shadow,  

DLR